EW1895 Weather Reports


Display with metric or nautical units.
time (UTC)temp
F
wind
direction
speed
MPH
gust
MPH
rain 1hr
in
rain 24hr
in
rain mn
in
humidity
%
barometer
mb
20260506190029 66 175 0.0 2.0 0.00 0.00 0.00 87 1010.2
20260506184530 65 180 0.0 2.0 0.00 0.00 0.00 86 1010.5
20260506183022 65 229 0.0 4.0 0.00 0.00 0.00 88 1010.5
20260506180036 65 263 1.0 5.0 0.00 0.00 0.00 87 1010.5
20260506174533 65 205 1.0 6.0 0.00 0.00 0.00 89 1010.9
20260506173030 64 221 1.0 5.0 0.00 0.00 0.00 90 1010.8
20260506171543 63 13 0.0 5.0 0.00 0.00 0.00 92 1010.9
20260506170037 63 169 1.0 6.0 0.00 0.00 0.00 91 1010.6
20260506164533 63 249 0.0 3.0 0.00 0.00 0.00 93 1011.1
20260506163029 63 133 1.0 7.0 0.00 0.00 0.00 93 1011.2
20260506161527 63 216 0.0 5.0 0.00 0.00 0.00 93 1011.5
20260506160026 62 120 0.0 5.0 0.00 0.00 0.00 93 1011.2
20260506154525 62 200 0.0 0.0 0.00 0.00 0.00 94 1011.1
20260506153023 61 200 0.0 3.0 0.00 0.00 0.00 94 1011.5
20260506151531 61 201 0.0 5.0 0.00 0.00 0.00 94 1011.5
20260506150023 61 214 0.0 0.0 0.00 0.00 0.00 93 1011.7
20260506144522 61 188 0.0 0.0 0.00 0.00 0.00 93 1012.2
20260506143021 61 215 0.0 3.0 0.00 0.00 0.00 92 1012.2
20260506141520 61 203 0.0 2.0 0.00 0.00 0.00 92 1012.0
20260506140026 61 249 0.0 3.0 0.00 0.00 0.00 92 1011.9
20260506134518 61 153 0.0 0.0 0.00 0.00 0.00 89 1012.0
20260506133036 62 130 0.0 2.0 0.00 0.00 0.00 88 1011.9
20260506131523 62 186 0.0 2.0 0.00 0.00 0.00 88 1011.8
20260506130017 62 238 0.0 2.0 0.00 0.00 0.00 88 1011.7
20260506124516 62 192 0.0 0.0 0.00 0.00 0.00 86 1011.7
20260506123013 63 136 0.0 1.0 0.00 0.00 0.00 82 1011.8
20260506121511 64 116 0.0 1.0 0.00 0.00 0.00 77 1011.5
20260506120018 64 155 0.0 2.0 0.00 0.00 0.00 75 1011.7
20260506114511 64 219 0.0 4.0 0.00 0.00 0.00 75 1011.6
20260506113011 64 263 1.0 5.0 0.00 0.00 0.00 74 1011.5
20260506111510 63 300 0.0 3.0 0.00 0.00 0.00 75 1011.5
20260506110009 63 116 0.0 1.0 0.00 0.00 0.00 75 1011.3
20260506104508 63 126 0.0 2.0 0.00 0.00 0.00 75 1011.3
20260506103009 63 234 0.0 2.0 0.00 0.00 0.00 75 1011.6
20260506101508 63 222 0.0 2.0 0.00 0.00 0.00 75 1011.5
20260506100014 63 207 0.0 4.0 0.00 0.00 0.00 76 1011.5
20260506094507 63 173 0.0 1.0 0.00 0.00 0.00 76 1011.5
20260506093006 63 178 0.0 4.0 0.00 0.00 0.00 75 1011.3
20260506091504 64 288 0.0 3.0 0.00 0.00 0.00 75 1011.4
20260506090004 64 244 0.0 5.0 0.00 0.00 0.00 75 1011.4
20260506084504 64 268 0.0 4.0 0.00 0.00 0.00 74 1011.5
20260506083002 64 230 0.0 4.0 0.00 0.00 0.00 74 1011.5
20260506081501 64 147 0.0 5.0 0.00 0.00 0.00 73 1011.4
20260506073056 64 223 0.0 3.0 0.00 0.00 0.00 71 1011.8
20260506071555 65 188 0.0 2.0 0.00 0.00 0.00 70 1011.7
20260506061556 66 198 0.0 3.0 0.00 0.00 0.00 68 1012.0
20260506044541 69 191 0.0 3.0 0.00 0.00 0.00 61 1012.6
20260506043039 69 210 0.0 3.0 0.00 0.00 0.00 60 1012.6
20260506041539 69 188 0.0 2.0 0.00 0.00 0.00 59 1012.6
20260506040041 69 233 0.0 4.0 0.00 0.00 0.00 58 1012.6
20260506034536 70 148 0.0 4.0 0.00 0.00 0.00 58 1012.6
20260506033035 70 267 0.0 4.0 0.00 0.00 0.00 57 1012.5
20260506031535 70 124 0.0 2.0 0.00 0.00 0.00 57 1012.5
20260506030032 70 223 0.0 4.0 0.00 0.00 0.00 56 1012.5
20260506024531 70 105 0.0 4.0 0.00 0.00 0.00 55 1012.5
20260506023031 71 221 0.0 4.0 0.00 0.00 0.00 55 1012.6
20260506021532 71 180 0.0 4.0 0.00 0.00 0.00 55 1012.6
20260506020031 71 254 0.0 4.0 0.00 0.00 0.00 54 1012.5
20260506014525 71 126 0.0 2.0 0.00 0.00 0.00 53 1012.4
20260506013022 71 261 0.0 2.0 0.00 0.00 0.00 52 1012.3
20260506011518 72 135 0.0 4.0 0.00 0.00 0.00 50 1012.1
20260506010033 73 117 0.0 1.0 0.00 0.00 0.00 49 1012.0
20260506004515 73 297 0.0 1.0 0.00 0.00 0.00 48 1011.9
20260506003011 74 103 0.0 2.0 0.00 0.00 0.00 47 1011.7
20260506001508 75 287 0.0 2.0 0.00 0.00 0.00 45 1011.6
20260506000008 75 161 0.0 3.0 0.00 0.00 0.00 43 1011.4
20260505234510 76 205 0.0 2.0 0.00 0.00 0.00 41 1011.4
20260505233004 76 137 0.0 1.0 0.00 0.00 0.00 40 1011.3
20260505231600 77 110 0.0 2.0 0.00 0.00 0.00 38 1011.5
20260505224556 78 163 0.0 2.0 0.00 0.00 0.00 36 1011.5
20260505223053 79 342 0.0 5.0 0.00 0.00 0.00 35 1011.4
20260505221551 79 209 0.0 10.0 0.00 0.00 0.00 35 1011.5
20260505220050 80 259 0.0 4.0 0.00 0.00 0.00 33 1011.3
20260505214604 81 237 0.0 5.0 0.00 0.00 0.00 33 1011.1
20260505213058 82 239 0.0 11.0 0.00 0.00 0.00 31 1011.0
20260505211548 82 117 0.0 9.0 0.00 0.00 0.00 31 1011.0
20260505210056 83 123 0.0 3.0 0.00 0.00 0.00 30 1011.0
20260505204556 83 215 0.0 6.0 0.00 0.00 0.00 29 1011.2
20260505203053 85 239 0.0 8.0 0.00 0.00 0.00 28 1010.9
20260505201550 86 192 0.0 8.0 0.00 0.00 0.00 28 1011.1
20260505200059 87 226 0.0 4.0 0.00 0.00 0.00 26 1011.2
20260505194549 87 320 2.0 12.0 0.00 0.00 0.00 26 1011.4
20260505193049 87 284 1.0 10.0 0.00 0.00 0.00 26 1011.7
20260505191543 87 218 1.0 12.0 0.00 0.00 0.00 27 1011.7